| time (UTC) | temp F | wind direction | speed MPH | gust MPH | rain 1hr in | rain 24hr in | rain mn in | humidity % | barometer mb |
| 20260905093505 | 74 | 108 | 3.0 | 6.0 | 0.00 | 0.00 | 0.00 | 86 | 1013.7 |
| 20260905093015 | 74 | 97 | 3.0 | 6.0 | 0.00 | 0.00 | 0.00 | 87 | 1009.7 |
| 20260905093011 | 74 | 169 | 3.0 | 6.0 | 0.00 | 0.00 | 0.00 | 86 | 1013.5 |
| 20260905092508 | 74 | 96 | 3.0 | 6.0 | 0.00 | 0.00 | 0.00 | 86 | 1013.4 |
| 20260905092009 | 74 | 70 | 3.0 | 6.0 | 0.00 | 0.00 | 0.00 | 86 | 1013.4 |
| 20260905091519 | 74 | 96 | 2.0 | 7.0 | 0.00 | 0.00 | 0.00 | 86 | 1013.4 |
| 20260905091515 | 74 | 89 | 2.0 | 7.0 | 0.00 | 0.00 | 0.00 | 87 | 1009.6 |
| 20260905091013 | 74 | 100 | 4.0 | 7.0 | 0.00 | 0.00 | 0.00 | 86 | 1013.1 |
| 20260905090509 | 74 | 87 | 3.0 | 7.0 | 0.00 | 0.00 | 0.00 | 86 | 1013.0 |
| 20260905090023 | 74 | 65 | 2.0 | 9.0 | 0.00 | 0.00 | 0.00 | 85 | 1013.0 |
| 20260905090017 | 74 | 99 | 1.0 | 7.0 | 0.00 | 0.00 | 0.00 | 86 | 1009.3 |
| 20260905085510 | 74 | 113 | 2.0 | 9.0 | 0.00 | 0.00 | 0.00 | 85 | 1012.8 |
| 20260905085014 | 74 | 103 | 4.0 | 8.0 | 0.00 | 0.00 | 0.00 | 85 | 1012.8 |
| 20260905084526 | 74 | 23 | 4.0 | 8.0 | 0.00 | 0.00 | 0.00 | 85 | 1012.9 |
| 20260905084510 | 74 | 96 | 4.0 | 8.0 | 0.00 | 0.00 | 0.00 | 86 | 1009.1 |
| 20260905084002 | 74 | 95 | 3.0 | 6.0 | 0.00 | 0.00 | 0.00 | 85 | 1012.9 |
| 20260905083504 | 74 | 118 | 3.0 | 6.0 | 0.00 | 0.00 | 0.00 | 85 | 1012.9 |
| 20260905083010 | 74 | 117 | 0.0 | 3.0 | 0.00 | 0.00 | 0.00 | 85 | 1009.1 |
| 20260905083006 | 74 | 110 | 1.0 | 3.0 | 0.00 | 0.00 | 0.00 | 85 | 1012.9 |
| 20260905082502 | 74 | 73 | 1.0 | 2.0 | 0.00 | 0.00 | 0.00 | 84 | 1012.9 |
| 20260905082006 | 74 | 58 | 1.0 | 3.0 | 0.00 | 0.00 | 0.00 | 84 | 1012.8 |
| 20260905081515 | 74 | 120 | 1.0 | 4.0 | 0.00 | 0.00 | 0.00 | 84 | 1012.8 |
| 20260905081510 | 74 | 120 | 0.0 | 4.0 | 0.00 | 0.00 | 0.00 | 85 | 1009.0 |
| 20260905081010 | 74 | 101 | 2.0 | 4.0 | 0.00 | 0.00 | 0.00 | 85 | 1012.7 |
| 20260905080505 | 74 | 131 | 1.0 | 4.0 | 0.00 | 0.00 | 0.00 | 84 | 1013.0 |
| 20260905080021 | 74 | 160 | 2.0 | 4.0 | 0.00 | 0.00 | 0.00 | 84 | 1013.1 |
| 20260905080007 | 74 | 168 | 2.0 | 4.0 | 0.00 | 0.00 | 0.00 | 85 | 1009.5 |
| 20260905075512 | 74 | 200 | 3.0 | 5.0 | 0.00 | 0.00 | 0.00 | 84 | 1013.1 |
| 20260905075009 | 74 | 130 | 2.0 | 5.0 | 0.00 | 0.00 | 0.00 | 84 | 1013.1 |
| 20260905074528 | 74 | 205 | 2.0 | 5.0 | 0.00 | 0.00 | 0.00 | 84 | 1013.3 |
| 20260905074506 | 74 | 205 | 1.0 | 5.0 | 0.00 | 0.00 | 0.00 | 84 | 1009.7 |
| 20260905074015 | 75 | 120 | 2.0 | 5.0 | 0.00 | 0.00 | 0.00 | 83 | 1013.1 |
| 20260905073513 | 75 | 111 | 2.0 | 6.0 | 0.00 | 0.00 | 0.00 | 83 | 1012.9 |
| 20260905073009 | 75 | 181 | 1.0 | 10.0 | 0.00 | 0.00 | 0.00 | 83 | 1013.0 |
| 20260905073006 | 75 | 212 | 0.0 | 7.0 | 0.00 | 0.00 | 0.00 | 83 | 1009.3 |
| 20260905072503 | 75 | 82 | 4.0 | 10.0 | 0.00 | 0.00 | 0.00 | 83 | 1012.8 |
| 20260905072003 | 75 | 104 | 3.0 | 11.0 | 0.00 | 0.00 | 0.00 | 83 | 1012.8 |
| 20260905071510 | 75 | 144 | 4.0 | 11.0 | 0.00 | 0.00 | 0.00 | 83 | 1012.7 |
| 20260905071504 | 75 | 74 | 4.0 | 11.0 | 0.00 | 0.00 | 0.00 | 83 | 1008.9 |
| 20260905071007 | 75 | 104 | 4.0 | 11.0 | 0.00 | 0.00 | 0.00 | 83 | 1012.4 |
| 20260905070506 | 75 | 109 | 4.0 | 11.0 | 0.00 | 0.00 | 0.00 | 83 | 1012.4 |
| 20260905070017 | 75 | 133 | 5.0 | 8.0 | 0.00 | 0.00 | 0.00 | 83 | 1012.5 |
| 20260905070003 | 75 | 116 | 4.0 | 8.0 | 0.00 | 0.00 | 0.00 | 83 | 1008.7 |
| 20260905065510 | 75 | 105 | 3.0 | 8.0 | 0.00 | 0.00 | 0.00 | 83 | 1012.7 |
| 20260905065009 | 74 | 158 | 3.0 | 11.0 | 0.00 | 0.00 | 0.00 | 83 | 1012.9 |
| 20260905064605 | 75 | 152 | 3.0 | 11.0 | 0.00 | 0.00 | 0.00 | 83 | 1009.4 |
| 20260905064523 | 75 | 192 | 4.0 | 11.0 | 0.00 | 0.00 | 0.00 | 83 | 1013.1 |
| 20260905064018 | 75 | 169 | 4.0 | 9.0 | 0.00 | 0.00 | 0.00 | 82 | 1013.3 |
| 20260905063511 | 75 | 139 | 4.0 | 8.0 | 0.00 | 0.00 | 0.00 | 82 | 1013.4 |
| 20260905063059 | 75 | 148 | 3.0 | 8.0 | 0.00 | 0.00 | 0.00 | 82 | 1009.8 |
| 20260905063028 | 75 | 206 | 4.0 | 8.0 | 0.00 | 0.00 | 0.00 | 82 | 1013.4 |
| 20260905062514 | 75 | 129 | 3.0 | 9.0 | 0.00 | 0.00 | 0.00 | 82 | 1013.4 |
| 20260905062018 | 75 | 132 | 3.0 | 9.0 | 0.00 | 0.00 | 0.00 | 81 | 1013.2 |
| 20260905061600 | 75 | 122 | 3.0 | 11.0 | 0.00 | 0.00 | 0.00 | 82 | 1009.6 |
| 20260905061504 | 75 | 134 | 4.0 | 11.0 | 0.00 | 0.00 | 0.00 | 81 | 1013.3 |
| 20260905061003 | 75 | 96 | 3.0 | 11.0 | 0.00 | 0.00 | 0.00 | 81 | 1013.4 |
| 20260905060506 | 75 | 118 | 5.0 | 11.0 | 0.00 | 0.00 | 0.00 | 80 | 1013.4 |
| 20260905060053 | 75 | 127 | 4.0 | 9.0 | 0.00 | 0.00 | 0.00 | 81 | 1009.8 |
| 20260905060015 | 75 | 96 | 5.0 | 9.0 | 0.00 | 0.00 | 0.00 | 80 | 1013.5 |
| 20260905055506 | 75 | 164 | 4.0 | 10.0 | 0.00 | 0.00 | 0.00 | 79 | 1013.7 |
| 20260905055006 | 75 | 115 | 5.0 | 11.0 | 0.00 | 0.00 | 0.00 | 79 | 1013.6 |
| 20260905054551 | 75 | 120 | 5.0 | 11.0 | 0.00 | 0.00 | 0.00 | 79 | 1010.1 |
| 20260905054008 | 76 | 70 | 5.0 | 10.0 | 0.00 | 0.00 | 0.00 | 78 | 1013.8 |
| 20260905053512 | 76 | 101 | 4.0 | 10.0 | 0.00 | 0.00 | 0.00 | 77 | 1013.7 |
| 20260905053047 | 76 | 94 | 5.0 | 10.0 | 0.00 | 0.00 | 0.00 | 77 | 1010.0 |
| 20260905053023 | 76 | 76 | 5.0 | 10.0 | 0.00 | 0.00 | 0.00 | 76 | 1013.7 |
| 20260905052511 | 76 | 99 | 3.0 | 7.0 | 0.00 | 0.00 | 0.00 | 76 | 1013.8 |
| 20260905052012 | 76 | 100 | 3.0 | 10.0 | 0.00 | 0.00 | 0.00 | 76 | 1013.8 |
| 20260905051549 | 76 | 106 | 3.0 | 10.0 | 0.00 | 0.00 | 0.00 | 76 | 1010.2 |
| 20260905051526 | 76 | 95 | 3.0 | 10.0 | 0.00 | 0.00 | 0.00 | 75 | 1013.9 |
| 20260905051015 | 76 | 167 | 4.0 | 12.0 | 0.00 | 0.00 | 0.00 | 75 | 1013.9 |
| 20260905050517 | 76 | 110 | 5.0 | 12.0 | 0.00 | 0.00 | 0.00 | 75 | 1013.9 |
| 20260905050040 | 76 | 198 | 4.0 | 9.0 | 0.00 | 0.00 | 0.00 | 76 | 1010.2 |
| 20260905050009 | 76 | 113 | 4.0 | 9.0 | 0.00 | 0.00 | 0.00 | 75 | 1013.8 |
| 20260905045504 | 76 | 85 | 3.0 | 12.0 | 0.00 | 0.00 | 0.00 | 75 | 1013.8 |
| 20260905045004 | 77 | 58 | 3.0 | 13.0 | 0.00 | 0.00 | 0.00 | 74 | 1013.8 |
| 20260905044540 | 77 | 136 | 4.0 | 13.0 | 0.00 | 0.00 | 0.00 | 74 | 1010.0 |
| 20260905044512 | 77 | 99 | 4.0 | 13.0 | 0.00 | 0.00 | 0.00 | 74 | 1013.6 |
| 20260905044008 | 77 | 86 | 7.0 | 12.0 | 0.00 | 0.00 | 0.00 | 73 | 1013.4 |
| 20260905043508 | 77 | 74 | 6.0 | 13.0 | 0.00 | 0.00 | 0.00 | 74 | 1013.5 |
| 20260905043051 | 77 | 125 | 5.0 | 13.0 | 0.00 | 0.00 | 0.00 | 75 | 1009.7 |
| 20260905043018 | 77 | 129 | 5.0 | 13.0 | 0.00 | 0.00 | 0.00 | 75 | 1013.5 |
| 20260905042513 | 77 | 46 | 4.0 | 10.0 | 0.00 | 0.00 | 0.00 | 75 | 1013.6 |
| 20260905042011 | 77 | 120 | 5.0 | 10.0 | 0.00 | 0.00 | 0.00 | 76 | 1013.7 |
| 20260905041540 | 77 | 113 | 4.0 | 10.0 | 0.00 | 0.00 | 0.00 | 77 | 1009.9 |
| 20260905041527 | 77 | 98 | 4.0 | 12.0 | 0.00 | 0.00 | 0.00 | 76 | 1013.7 |
| 20260905041013 | 77 | 135 | 5.0 | 12.0 | 0.00 | 0.00 | 0.00 | 76 | 1013.7 |
| 20260905040516 | 77 | 113 | 6.0 | 12.0 | 0.00 | 0.00 | 0.00 | 76 | 1013.7 |
| 20260905040041 | 77 | 120 | 2.0 | 10.0 | 0.00 | 0.00 | 0.00 | 76 | 1009.9 |
| 20260905040030 | 77 | 124 | 3.0 | 12.0 | 0.00 | 0.00 | 0.00 | 76 | 1013.7 |
| 20260905035514 | 76 | 184 | 5.0 | 13.0 | 0.00 | 0.00 | 0.00 | 76 | 1013.5 |
| 20260905035017 | 76 | 86 | 6.0 | 13.0 | 0.00 | 0.00 | 0.00 | 77 | 1013.3 |
| 20260905034540 | 75 | 88 | 5.0 | 10.0 | 0.00 | 0.00 | 0.00 | 78 | 1009.6 |
| 20260905034512 | 75 | 105 | 5.0 | 11.0 | 0.00 | 0.00 | 0.00 | 78 | 1013.3 |
| 20260905034009 | 75 | 122 | 4.0 | 11.0 | 0.00 | 0.00 | 0.00 | 78 | 1013.4 |
| 20260905033506 | 75 | 161 | 5.0 | 11.0 | 0.00 | 0.00 | 0.00 | 78 | 1013.5 |
| 20260905033105 | 75 | 116 | 5.0 | 13.0 | 0.00 | 0.00 | 0.00 | 79 | 1009.8 |
| 20260905033017 | 75 | 105 | 6.0 | 13.0 | 0.00 | 0.00 | 0.00 | 78 | 1013.6 |
| 20260905032508 | 75 | 111 | 6.0 | 13.0 | 0.00 | 0.00 | 0.00 | 78 | 1013.6 |
| 20260905032012 | 75 | 64 | 5.0 | 14.0 | 0.00 | 0.00 | 0.00 | 79 | 1013.6 |
| 20260905031548 | 75 | 103 | 6.0 | 14.0 | 0.00 | 0.00 | 0.00 | 79 | 1009.8 |
| 20260905031526 | 75 | 99 | 6.0 | 14.0 | 0.00 | 0.00 | 0.00 | 79 | 1013.6 |
| 20260905031012 | 75 | 75 | 7.0 | 14.0 | 0.00 | 0.00 | 0.00 | 78 | 1013.7 |
| 20260905030512 | 75 | 101 | 4.0 | 10.0 | 0.00 | 0.00 | 0.00 | 78 | 1013.9 |
| 20260905030050 | 75 | 86 | 3.0 | 10.0 | 0.00 | 0.00 | 0.00 | 79 | 1010.2 |
| 20260905030033 | 75 | 108 | 3.0 | 10.0 | 0.00 | 0.00 | 0.00 | 78 | 1014.1 |
| 20260905025515 | 75 | 58 | 6.0 | 9.0 | 0.00 | 0.00 | 0.00 | 78 | 1014.2 |
| 20260905025013 | 75 | 35 | 4.0 | 6.0 | 0.00 | 0.00 | 0.00 | 77 | 1014.4 |
| 20260905024533 | 76 | 47 | 2.0 | 5.0 | 0.00 | 0.00 | 0.00 | 77 | 1010.3 |
| 20260905024528 | 76 | 30 | 2.0 | 5.0 | 0.00 | 0.00 | 0.00 | 77 | 1014.2 |
| 20260905024014 | 76 | 82 | 2.0 | 6.0 | 0.00 | 0.00 | 0.00 | 76 | 1014.2 |
| 20260905023515 | 76 | 65 | 2.0 | 7.0 | 0.00 | 0.00 | 0.00 | 76 | 1014.1 |
| 20260905023032 | 76 | 89 | 1.0 | 7.0 | 0.00 | 0.00 | 0.00 | 76 | 1010.2 |
| 20260905023013 | 76 | 63 | 1.0 | 7.0 | 0.00 | 0.00 | 0.00 | 76 | 1014.1 |
| 20260905022506 | 76 | 60 | 3.0 | 9.0 | 0.00 | 0.00 | 0.00 | 76 | 1014.1 |
| 20260905022008 | 76 | 48 | 4.0 | 9.0 | 0.00 | 0.00 | 0.00 | 76 | 1014.1 |
| 20260905021531 | 76 | 41 | 5.0 | 8.0 | 0.00 | 0.00 | 0.00 | 76 | 1010.4 |
| 20260905021524 | 76 | 58 | 5.0 | 8.0 | 0.00 | 0.00 | 0.00 | 75 | 1014.2 |
| 20260905021009 | 76 | 51 | 3.0 | 7.0 | 0.00 | 0.00 | 0.00 | 75 | 1014.0 |
| 20260905020511 | 76 | 86 | 3.0 | 8.0 | 0.00 | 0.00 | 0.00 | 75 | 1013.7 |
| 20260905020030 | 77 | 49 | 3.0 | 8.0 | 0.00 | 0.00 | 0.00 | 74 | 1009.8 |
| 20260905020027 | 77 | 56 | 4.0 | 8.0 | 0.00 | 0.00 | 0.00 | 73 | 1013.7 |
| 20260905015515 | 78 | 22 | 3.0 | 7.0 | 0.00 | 0.00 | 0.00 | 71 | 1013.5 |
| 20260905015011 | 78 | 53 | 3.0 | 10.0 | 0.00 | 0.00 | 0.00 | 70 | 1013.3 |
| 20260905014530 | 78 | 122 | 4.0 | 10.0 | 0.00 | 0.00 | 0.00 | 71 | 1009.2 |
| 20260905014013 | 78 | 84 | 4.0 | 10.0 | 0.00 | 0.00 | 0.00 | 71 | 1012.9 |
| 20260905013514 | 77 | 95 | 5.0 | 10.0 | 0.00 | 0.00 | 0.00 | 71 | 1012.9 |
| 20260905013032 | 76 | 131 | 4.0 | 8.0 | 0.00 | 0.00 | 0.00 | 73 | 1012.9 |
| 20260905013029 | 77 | 108 | 5.0 | 8.0 | 0.00 | 0.00 | 0.00 | 74 | 1009.0 |
| 20260905012514 | 76 | 62 | 5.0 | 10.0 | 0.00 | 0.00 | 0.00 | 74 | 1013.0 |
| 20260905012016 | 76 | 49 | 4.0 | 10.0 | 0.00 | 0.00 | 0.00 | 74 | 1012.8 |
| 20260905011528 | 77 | 27 | 3.0 | 12.0 | 0.00 | 0.00 | 0.00 | 73 | 1008.8 |
| 20260905011520 | 77 | 5 | 4.0 | 12.0 | 0.00 | 0.00 | 0.00 | 73 | 1012.9 |
| 20260905011006 | 77 | 38 | 7.0 | 12.0 | 0.00 | 0.00 | 0.00 | 72 | 1012.5 |
| 20260905010509 | 77 | 56 | 4.0 | 9.0 | 0.00 | 0.00 | 0.00 | 72 | 1012.6 |
| 20260905010028 | 78 | 64 | 3.0 | 11.0 | 0.00 | 0.00 | 0.00 | 71 | 1008.6 |
| 20260905010023 | 78 | 55 | 4.0 | 11.0 | 0.00 | 0.00 | 0.00 | 71 | 1012.5 |
| 20260905005511 | 78 | 42 | 6.0 | 11.0 | 0.00 | 0.00 | 0.00 | 71 | 1012.3 |
| 20260905005012 | 78 | 53 | 6.0 | 10.0 | 0.00 | 0.00 | 0.00 | 70 | 1012.4 |
| 20260905004529 | 79 | 48 | 5.0 | 12.0 | 0.00 | 0.00 | 0.00 | 68 | 1012.4 |
| 20260905004011 | 79 | 25 | 5.0 | 12.0 | 0.00 | 0.00 | 0.00 | 67 | 1012.3 |
| 20260905003514 | 79 | 59 | 5.0 | 11.0 | 0.00 | 0.00 | 0.00 | 65 | 1012.5 |
| 20260905003030 | 79 | 63 | 7.0 | 11.0 | 0.00 | 0.00 | 0.00 | 65 | 1011.9 |
| 20260905003027 | 79 | 66 | 7.0 | 11.0 | 0.00 | 0.00 | 0.00 | 66 | 1008.0 |
| 20260905002514 | 80 | 41 | 3.0 | 5.0 | 0.00 | 0.00 | 0.00 | 65 | 1012.0 |
| 20260905002016 | 80 | 82 | 2.0 | 5.0 | 0.00 | 0.00 | 0.00 | 65 | 1012.3 |
| 20260905001530 | 80 | 214 | 1.0 | 8.0 | 0.00 | 0.00 | 0.00 | 64 | 1013.0 |
| 20260905001526 | 80 | 131 | 1.0 | 8.0 | 0.00 | 0.00 | 0.00 | 65 | 1008.9 |
| 20260905001020 | 80 | 57 | 3.0 | 8.0 | 0.00 | 0.00 | 0.00 | 64 | 1012.5 |
| 20260905000522 | 80 | 120 | 2.0 | 5.0 | 0.00 | 0.00 | 0.00 | 66 | 1012.7 |
| 20260905000026 | 80 | 69 | 2.0 | 6.0 | 0.00 | 0.00 | 0.00 | 68 | 1008.8 |
| 20260905000018 | 80 | 57 | 3.0 | 6.0 | 0.00 | 0.00 | 0.00 | 67 | 1012.9 |
| 20260904235509 | 80 | 85 | 3.0 | 6.0 | 0.00 | 0.00 | 0.00 | 68 | 1013.0 |
| 20260904235009 | 80 | 32 | 4.0 | 6.0 | 0.00 | 0.00 | 0.00 | 67 | 1013.1 |
| 20260904234525 | 81 | 67 | 2.0 | 6.0 | 0.00 | 0.00 | 0.00 | 67 | 1008.9 |
| 20260904234012 | 81 | 62 | 3.0 | 6.0 | 0.00 | 0.00 | 0.00 | 66 | 1013.0 |
| 20260904233514 | 81 | 113 | 2.0 | 6.0 | 0.00 | 0.00 | 0.00 | 66 | 1012.9 |
| 20260904233027 | 81 | 134 | 2.0 | 6.0 | 0.00 | 0.00 | 0.00 | 66 | 1012.6 |
| 20260904232516 | 82 | 115 | 4.0 | 9.0 | 0.00 | 0.00 | 0.00 | 64 | 1012.6 |
| 20260904232013 | 82 | 106 | 3.0 | 9.0 | 0.00 | 0.00 | 0.00 | 63 | 1012.7 |
| 20260904231533 | 82 | 92 | 4.0 | 10.0 | 0.00 | 0.00 | 0.00 | 62 | 1008.7 |
| 20260904231530 | 82 | 96 | 4.0 | 10.0 | 0.00 | 0.00 | 0.00 | 62 | 1012.8 |
| 20260904231016 | 83 | 93 | 5.0 | 10.0 | 0.00 | 0.00 | 0.00 | 61 | 1012.8 |
| 20260904230519 | 83 | 109 | 3.0 | 9.0 | 0.00 | 0.00 | 0.00 | 61 | 1012.8 |
| 20260904230036 | 83 | 100 | 3.0 | 7.0 | 0.00 | 0.00 | 0.00 | 61 | 1009.0 |
| 20260904225519 | 83 | 55 | 4.0 | 8.0 | 0.00 | 0.00 | 0.00 | 59 | 1013.3 |
| 20260904225019 | 84 | 60 | 5.0 | 8.0 | 0.00 | 0.00 | 0.00 | 58 | 1013.2 |
| 20260904224524 | 84 | 65 | 3.0 | 8.0 | 0.00 | 0.00 | 0.00 | 58 | 1009.0 |
| 20260904224521 | 84 | 56 | 4.0 | 8.0 | 0.00 | 0.00 | 0.00 | 58 | 1013.2 |
| 20260904224008 | 84 | 58 | 4.0 | 10.0 | 0.00 | 0.00 | 0.00 | 56 | 1013.3 |
| 20260904223507 | 84 | 96 | 4.0 | 10.0 | 0.00 | 0.00 | 0.00 | 56 | 1013.1 |
| 20260904223025 | 84 | 67 | 4.0 | 8.0 | 0.00 | 0.00 | 0.00 | 55 | 1013.2 |
| 20260904223023 | 84 | 47 | 4.0 | 7.0 | 0.00 | 0.00 | 0.00 | 56 | 1009.0 |
| 20260904222510 | 84 | 44 | 3.0 | 12.0 | 0.00 | 0.00 | 0.00 | 54 | 1013.5 |
| 20260904222011 | 84 | 13 | 4.0 | 12.0 | 0.00 | 0.00 | 0.00 | 54 | 1012.8 |
| 20260904221535 | 84 | 62 | 6.0 | 12.0 | 0.00 | 0.00 | 0.00 | 52 | 1012.2 |
| 20260904221520 | 84 | 79 | 6.0 | 12.0 | 0.00 | 0.00 | 0.00 | 52 | 1008.1 |
| 20260904221016 | 85 | 95 | 7.0 | 13.0 | 0.00 | 0.00 | 0.00 | 50 | 1012.8 |
| 20260904220514 | 85 | 50 | 5.0 | 13.0 | 0.00 | 0.00 | 0.00 | 47 | 1013.4 |
| 20260904220031 | 85 | 68 | 4.0 | 11.0 | 0.00 | 0.00 | 0.00 | 48 | 1013.5 |
| 20260904220020 | 85 | 88 | 4.0 | 11.0 | 0.00 | 0.00 | 0.00 | 48 | 1009.4 |
| 20260904215519 | 85 | 86 | 5.0 | 11.0 | 0.00 | 0.00 | 0.00 | 49 | 1013.4 |
| 20260904215008 | 86 | 143 | 5.0 | 13.0 | 0.00 | 0.00 | 0.00 | 48 | 1013.4 |
| 20260904214520 | 86 | 91 | 5.0 | 15.0 | 0.00 | 0.00 | 0.00 | 49 | 1009.2 |
| 20260904214515 | 86 | 86 | 6.0 | 15.0 | 0.00 | 0.00 | 0.00 | 48 | 1013.2 |
| 20260904214008 | 86 | 83 | 4.0 | 15.0 | 0.00 | 0.00 | 0.00 | 47 | 1013.1 |
| 20260904213508 | 87 | 114 | 8.0 | 15.0 | 0.00 | 0.00 | 0.00 | 47 | 1013.1 |
| 20260904213028 | 88 | 87 | 8.0 | 15.0 | 0.00 | 0.00 | 0.00 | 47 | 1008.9 |
| 20260904213025 | 88 | 139 | 8.0 | 15.0 | 0.00 | 0.00 | 0.00 | 47 | 1013.0 |
| 20260904212512 | 88 | 94 | 7.0 | 14.0 | 0.00 | 0.00 | 0.00 | 47 | 1013.0 |
| 20260904212013 | 87 | 73 | 8.0 | 13.0 | 0.00 | 0.00 | 0.00 | 48 | 1013.0 |
| 20260904211527 | 88 | 50 | 8.0 | 14.0 | 0.00 | 0.00 | 0.00 | 50 | 1012.9 |
| 20260904211518 | 88 | 65 | 8.0 | 14.0 | 0.00 | 0.00 | 0.00 | 50 | 1008.6 |
| 20260904211011 | 88 | 31 | 7.0 | 16.0 | 0.00 | 0.00 | 0.00 | 48 | 1012.9 |
| 20260904210516 | 88 | 48 | 8.0 | 16.0 | 0.00 | 0.00 | 0.00 | 48 | 1012.8 |
| 20260904210035 | 88 | 73 | 9.0 | 16.0 | 0.00 | 0.00 | 0.00 | 47 | 1012.8 |
| 20260904210017 | 88 | 59 | 8.0 | 16.0 | 0.00 | 0.00 | 0.00 | 48 | 1008.5 |
| 20260904205516 | 88 | 60 | 7.0 | 13.0 | 0.00 | 0.00 | 0.00 | 49 | 1013.0 |
| 20260904205013 | 88 | 77 | 6.0 | 14.0 | 0.00 | 0.00 | 0.00 | 50 | 1013.1 |
| 20260904204526 | 88 | 67 | 6.0 | 15.0 | 0.00 | 0.00 | 0.00 | 48 | 1008.9 |
| 20260904204511 | 88 | 65 | 6.0 | 15.0 | 0.00 | 0.00 | 0.00 | 49 | 1013.1 |
| 20260904204009 | 88 | 60 | 10.0 | 15.0 | 0.00 | 0.00 | 0.00 | 50 | 1013.2 |
| 20260904203508 | 88 | 60 | 7.0 | 13.0 | 0.00 | 0.00 | 0.00 | 49 | 1013.3 |
| 20260904203022 | 88 | 63 | 6.0 | 10.0 | 0.00 | 0.00 | 0.00 | 50 | 1013.5 |
| 20260904203019 | 88 | 57 | 5.0 | 10.0 | 0.00 | 0.00 | 0.00 | 50 | 1009.3 |
| 20260904202511 | 88 | 46 | 6.0 | 11.0 | 0.00 | 0.00 | 0.00 | 47 | 1013.5 |
| 20260904202016 | 88 | 102 | 5.0 | 11.0 | 0.00 | 0.00 | 0.00 | 45 | 1013.5 |
| 20260904201526 | 88 | 64 | 5.0 | 10.0 | 0.00 | 0.00 | 0.00 | 49 | 1013.5 |
| 20260904201513 | 88 | 46 | 5.0 | 10.0 | 0.00 | 0.00 | 0.00 | 50 | 1009.5 |
| 20260904201013 | 88 | 37 | 4.0 | 10.0 | 0.00 | 0.00 | 0.00 | 52 | 1013.5 |
| 20260904200511 | 88 | 63 | 3.0 | 11.0 | 0.00 | 0.00 | 0.00 | 51 | 1013.7 |
| 20260904200045 | 88 | 58 | 6.0 | 11.0 | 0.00 | 0.00 | 0.00 | 50 | 1013.8 |
| 20260904200013 | 88 | 69 | 6.0 | 11.0 | 0.00 | 0.00 | 0.00 | 50 | 1009.6 |
| 20260904195515 | 89 | 70 | 3.0 | 9.0 | 0.00 | 0.00 | 0.00 | 51 | 1013.8 |
| 20260904195014 | 88 | 60 | 5.0 | 8.0 | 0.00 | 0.00 | 0.00 | 50 | 1013.9 |
| 20260904194533 | 89 | 124 | 4.0 | 8.0 | 0.00 | 0.00 | 0.00 | 49 | 1013.9 |
| 20260904194512 | 89 | 114 | 3.0 | 8.0 | 0.00 | 0.00 | 0.00 | 49 | 1009.8 |
| 20260904194014 | 88 | 79 | 3.0 | 10.0 | 0.00 | 0.00 | 0.00 | 49 | 1013.9 |
| 20260904193517 | 88 | 75 | 6.0 | 10.0 | 0.00 | 0.00 | 0.00 | 49 | 1013.9 |
| 20260904193015 | 88 | 73 | 3.0 | 8.0 | 0.00 | 0.00 | 0.00 | 53 | 1013.8 |
| 20260904193009 | 88 | 126 | 3.0 | 8.0 | 0.00 | 0.00 | 0.00 | 51 | 1009.8 |
| 20260904192507 | 88 | 52 | 4.0 | 8.0 | 0.00 | 0.00 | 0.00 | 53 | 1013.8 |
| 20260904192011 | 88 | 63 | 5.0 | 9.0 | 0.00 | 0.00 | 0.00 | 52 | 1013.8 |
| 20260904191517 | 88 | 65 | 5.0 | 10.0 | 0.00 | 0.00 | 0.00 | 52 | 1013.8 |
| 20260904191508 | 87 | 117 | 5.0 | 10.0 | 0.00 | 0.00 | 0.00 | 53 | 1009.8 |
| 20260904191011 | 87 | 51 | 5.0 | 10.0 | 0.00 | 0.00 | 0.00 | 53 | 1013.9 |
| 20260904190509 | 87 | 70 | 4.0 | 10.0 | 0.00 | 0.00 | 0.00 | 52 | 1013.9 |
| 20260904190027 | 87 | 63 | 4.0 | 10.0 | 0.00 | 0.00 | 0.00 | 50 | 1013.9 |
| 20260904190006 | 87 | 64 | 4.0 | 10.0 | 0.00 | 0.00 | 0.00 | 51 | 1009.8 |
| 20260904185509 | 87 | 88 | 4.0 | 12.0 | 0.00 | 0.00 | 0.00 | 54 | 1013.9 |
| 20260904185012 | 87 | 51 | 6.0 | 12.0 | 0.00 | 0.00 | 0.00 | 52 | 1013.9 |
| 20260904184536 | 86 | 97 | 3.0 | 10.0 | 0.00 | 0.00 | 0.00 | 58 | 1013.9 |
| 20260904184503 | 86 | 124 | 2.0 | 10.0 | 0.00 | 0.00 | 0.00 | 59 | 1009.8 |
| 20260904184017 | 86 | 57 | 5.0 | 10.0 | 0.00 | 0.00 | 0.00 | 56 | 1013.9 |
| 20260904183516 | 85 | 81 | 4.0 | 8.0 | 0.00 | 0.00 | 0.00 | 63 | 1013.7 |
| 20260904183115 | 85 | 50 | 6.0 | 8.0 | 0.00 | 0.00 | 0.00 | 64 | 1009.7 |
| 20260904183030 | 85 | 41 | 5.0 | 8.0 | 0.00 | 0.00 | 0.00 | 64 | 1013.8 |
| 20260904182530 | 84 | 24 | 3.0 | 8.0 | 0.00 | 0.00 | 0.00 | 67 | 1013.9 |
| 20260904182019 | 84 | 57 | 3.0 | 8.0 | 0.00 | 0.00 | 0.00 | 68 | 1013.9 |
| 20260904181555 | 83 | 72 | 5.0 | 8.0 | 0.00 | 0.00 | 0.00 | 67 | 1009.9 |
| 20260904181516 | 83 | 118 | 4.0 | 7.0 | 0.00 | 0.00 | 0.00 | 68 | 1013.9 |
| 20260904181009 | 82 | 355 | 4.0 | 7.0 | 0.00 | 0.00 | 0.00 | 70 | 1013.9 |
| 20260904180508 | 83 | 56 | 4.0 | 7.0 | 0.00 | 0.00 | 0.00 | 71 | 1013.9 |
| 20260904180058 | 82 | 31 | 2.0 | 6.0 | 0.00 | 0.00 | 0.00 | 71 | 1009.8 |
| 20260904180026 | 82 | 36 | 3.0 | 6.0 | 0.00 | 0.00 | 0.00 | 72 | 1013.9 |
| 20260904175514 | 82 | 141 | 2.0 | 8.0 | 0.00 | 0.00 | 0.00 | 73 | 1013.8 |
| 20260904175012 | 81 | 18 | 4.0 | 8.0 | 0.00 | 0.00 | 0.00 | 74 | 1013.8 |
| 20260904174548 | 80 | 24 | 4.0 | 8.0 | 0.00 | 0.00 | 0.00 | 75 | 1009.9 |
| 20260904174528 | 80 | 7 | 4.0 | 8.0 | 0.00 | 0.00 | 0.00 | 75 | 1013.7 |
| 20260904174014 | 80 | 18 | 4.0 | 9.0 | 0.00 | 0.00 | 0.00 | 76 | 1013.7 |
| 20260904173517 | 79 | 62 | 5.0 | 10.0 | 0.00 | 0.00 | 0.00 | 76 | 1013.7 |
| 20260904173052 | 79 | 78 | 5.0 | 10.0 | 0.00 | 0.00 | 0.00 | 76 | 1009.9 |
| 20260904173044 | 79 | 51 | 4.0 | 10.0 | 0.00 | 0.00 | 0.00 | 76 | 1013.7 |
| 20260904172517 | 78 | 15 | 5.0 | 10.0 | 0.00 | 0.00 | 0.00 | 77 | 1013.7 |
| 20260904172016 | 77 | 347 | 4.0 | 8.0 | 0.00 | 0.00 | 0.00 | 79 | 1013.7 |
| 20260904171603 | 77 | 44 | 4.0 | 8.0 | 0.00 | 0.00 | 0.00 | 79 | 1009.9 |
| 20260904171532 | 77 | 57 | 5.0 | 8.0 | 0.00 | 0.00 | 0.00 | 78 | 1013.7 |
| 20260904171014 | 77 | 30 | 5.0 | 9.0 | 0.00 | 0.00 | 0.00 | 79 | 1013.7 |
| 20260904170519 | 76 | 25 | 5.0 | 9.0 | 0.00 | 0.00 | 0.00 | 80 | 1013.8 |
| 20260904170041 | 75 | 63 | 5.0 | 7.0 | 0.00 | 0.00 | 0.00 | 81 | 1010.0 |
| 20260904170016 | 76 | 64 | 5.0 | 9.0 | 0.00 | 0.00 | 0.00 | 80 | 1013.8 |
| 20260904165510 | 75 | 312 | 3.0 | 9.0 | 0.00 | 0.00 | 0.00 | 82 | 1013.9 |
| 20260904165012 | 75 | 346 | 3.0 | 8.0 | 0.00 | 0.00 | 0.00 | 82 | 1014.0 |
| 20260904164539 | 74 | 34 | 2.0 | 7.0 | 0.00 | 0.00 | 0.00 | 84 | 1010.1 |
| 20260904164524 | 74 | 59 | 2.0 | 9.0 | 0.00 | 0.00 | 0.00 | 83 | 1014.1 |
| 20260904164012 | 73 | 86 | 4.0 | 9.0 | 0.00 | 0.00 | 0.00 | 84 | 1013.9 |
| 20260904163512 | 73 | 14 | 5.0 | 9.0 | 0.00 | 0.00 | 0.00 | 84 | 1013.9 |
| 20260904163031 | 72 | 2 | 3.0 | 8.0 | 0.00 | 0.00 | 0.00 | 86 | 1010.0 |
| 20260904162514 | 72 | 274 | 4.0 | 8.0 | 0.00 | 0.00 | 0.00 | 85 | 1014.0 |
| 20260904162015 | 71 | 351 | 4.0 | 8.0 | 0.00 | 0.00 | 0.00 | 87 | 1013.9 |
| 20260904161532 | 71 | 14 | 5.0 | 8.0 | 0.00 | 0.00 | 0.00 | 87 | 1014.1 |
| 20260904161528 | 71 | 8 | 4.0 | 8.0 | 0.00 | 0.00 | 0.00 | 88 | 1010.2 |
| 20260904161014 | 70 | 309 | 3.0 | 8.0 | 0.00 | 0.00 | 0.00 | 88 | 1014.1 |
| 20260904160517 | 70 | 359 | 4.0 | 8.0 | 0.00 | 0.00 | 0.00 | 89 | 1014.1 |
| 20260904160043 | 70 | 51 | 4.0 | 7.0 | 0.00 | 0.00 | 0.00 | 89 | 1013.9 |
| 20260904160026 | 70 | 20 | 4.0 | 7.0 | 0.00 | 0.00 | 0.00 | 90 | 1010.1 |
| 20260904155518 | 69 | 45 | 3.0 | 7.0 | 0.00 | 0.00 | 0.00 | 92 | 1013.9 |
| 20260904155019 | 68 | 48 | 4.0 | 11.0 | 0.00 | 0.00 | 0.00 | 93 | 1013.8 |
| 20260904154522 | 67 | 356 | 5.0 | 11.0 | 0.00 | 0.00 | 0.00 | 94 | 1009.8 |
| 20260904154519 | 67 | 10 | 6.0 | 11.0 | 0.00 | 0.00 | 0.00 | 93 | 1013.7 |
| 20260904154012 | 67 | 59 | 5.0 | 9.0 | 0.00 | 0.00 | 0.00 | 95 | 1013.7 |
| 20260904153512 | 66 | 11 | 3.0 | 8.0 | 0.00 | 0.00 | 0.00 | 95 | 1013.7 |
| 20260904153032 | 66 | 33 | 5.0 | 8.0 | 0.00 | 0.00 | 0.00 | 96 | 1009.8 |
| 20260904153029 | 66 | 347 | 5.0 | 8.0 | 0.00 | 0.00 | 0.00 | 95 | 1013.8 |
| 20260904152514 | 66 | 60 | 3.0 | 8.0 | 0.00 | 0.00 | 0.00 | 96 | 1013.8 |
| 20260904152014 | 65 | 41 | 4.0 | 8.0 | 0.00 | 0.00 | 0.00 | 96 | 1013.8 |
| 20260904151530 | 65 | 21 | 4.0 | 6.0 | 0.00 | 0.00 | 0.00 | 96 | 1013.7 |
| 20260904151517 | 65 | 41 | 4.0 | 6.0 | 0.00 | 0.00 | 0.00 | 96 | 1009.8 |
| 20260904151016 | 65 | 11 | 3.0 | 6.0 | 0.00 | 0.00 | 0.00 | 96 | 1013.7 |
| 20260904150517 | 64 | 9 | 3.0 | 6.0 | 0.00 | 0.00 | 0.00 | 96 | 1013.7 |
| 20260904150032 | 64 | 18 | 2.0 | 5.0 | 0.00 | 0.00 | 0.00 | 96 | 1013.7 |
| 20260904150018 | 64 | 352 | 2.0 | 5.0 | 0.00 | 0.00 | 0.00 | 96 | 1009.7 |
| 20260904145520 | 64 | 340 | 3.0 | 7.0 | 0.00 | 0.00 | 0.00 | 96 | 1013.7 |
| 20260904145019 | 64 | 24 | 5.0 | 7.0 | 0.00 | 0.00 | 0.00 | 96 | 1013.6 |
| 20260904144534 | 63 | 24 | 3.0 | 6.0 | 0.00 | 0.00 | 0.00 | 96 | 1013.6 |
| 20260904144514 | 63 | 20 | 3.0 | 6.0 | 0.00 | 0.00 | 0.00 | 96 | 1009.6 |
| 20260904144015 | 63 | 25 | 2.0 | 6.0 | 0.00 | 0.00 | 0.00 | 96 | 1013.6 |
| 20260904143517 | 63 | 39 | 2.0 | 8.0 | 0.00 | 0.00 | 0.00 | 96 | 1013.6 |
| 20260904143029 | 63 | 17 | 2.0 | 10.0 | 0.00 | 0.00 | 0.00 | 96 | 1013.5 |
| 20260904143020 | 63 | 6 | 2.0 | 10.0 | 0.00 | 0.00 | 0.00 | 96 | 1009.5 |
| 20260904142514 | 63 | 56 | 6.0 | 10.0 | 0.00 | 0.00 | 0.00 | 96 | 1013.4 |
| 20260904142015 | 63 | 15 | 4.0 | 8.0 | 0.00 | 0.00 | 0.00 | 96 | 1013.4 |
| 20260904141529 | 63 | 45 | 2.0 | 10.0 | 0.00 | 0.00 | 0.00 | 96 | 1013.3 |
| 20260904141515 | 63 | 323 | 2.0 | 10.0 | 0.00 | 0.00 | 0.00 | 96 | 1009.3 |
| 20260904141013 | 63 | 20 | 5.0 | 10.0 | 0.00 | 0.00 | 0.00 | 96 | 1013.3 |
| 20260904140518 | 62 | 60 | 5.0 | 9.0 | 0.00 | 0.00 | 0.00 | 96 | 1013.1 |
| 20260904140030 | 62 | 71 | 5.0 | 9.0 | 0.00 | 0.00 | 0.00 | 96 | 1013.1 |
| 20260904140019 | 62 | 332 | 5.0 | 9.0 | 0.00 | 0.00 | 0.00 | 96 | 1009.1 |
| 20260904135514 | 62 | 338 | 3.0 | 7.0 | 0.00 | 0.00 | 0.00 | 96 | 1013.0 |
| 20260904135014 | 62 | 58 | 3.0 | 8.0 | 0.00 | 0.00 | 0.00 | 96 | 1013.0 |
| 20260904134539 | 62 | 47 | 5.0 | 8.0 | 0.00 | 0.00 | 0.00 | 96 | 1013.0 |
| 20260904134510 | 62 | 78 | 4.0 | 8.0 | 0.00 | 0.00 | 0.00 | 96 | 1009.0 |
| 20260904134018 | 62 | 320 | 3.0 | 11.0 | 0.00 | 0.00 | 0.00 | 96 | 1013.0 |
| 20260904133516 | 61 | 34 | 6.0 | 11.0 | 0.00 | 0.00 | 0.00 | 96 | 1012.9 |
| 20260904133035 | 61 | 55 | 5.0 | 9.0 | 0.00 | 0.00 | 0.00 | 96 | 1013.0 |
| 20260904133009 | 61 | 53 | 4.0 | 8.0 | 0.00 | 0.00 | 0.00 | 96 | 1009.0 |
| 20260904132526 | 61 | 42 | 5.0 | 10.0 | 0.00 | 0.00 | 0.00 | 96 | 1013.0 |
| 20260904132018 | 61 | 65 | 6.0 | 12.0 | 0.00 | 0.00 | 0.00 | 95 | 1012.9 |
| 20260904131527 | 61 | 49 | 6.0 | 12.0 | 0.00 | 0.00 | 0.00 | 96 | 1009.0 |
| 20260904131016 | 61 | 46 | 6.0 | 11.0 | 0.00 | 0.00 | 0.00 | 95 | 1012.9 |
| 20260904130516 | 61 | 75 | 5.0 | 10.0 | 0.00 | 0.00 | 0.00 | 95 | 1012.9 |
| 20260904130030 | 61 | 51 | 6.0 | 10.0 | 0.00 | 0.00 | 0.00 | 95 | 1013.0 |
| 20260904130007 | 61 | 45 | 5.0 | 10.0 | 0.00 | 0.00 | 0.00 | 96 | 1009.0 |
| 20260904125517 | 61 | 54 | 6.0 | 10.0 | 0.00 | 0.00 | 0.00 | 95 | 1012.9 |
| 20260904125013 | 61 | 41 | 4.0 | 8.0 | 0.00 | 0.00 | 0.00 | 95 | 1013.0 |
| 20260904124528 | 60 | 55 | 3.0 | 8.0 | 0.00 | 0.00 | 0.00 | 95 | 1013.0 |
| 20260904124507 | 60 | 63 | 2.0 | 8.0 | 0.00 | 0.00 | 0.00 | 96 | 1009.0 |
| 20260904124015 | 60 | 98 | 4.0 | 7.0 | 0.00 | 0.00 | 0.00 | 95 | 1013.0 |
| 20260904123516 | 60 | 69 | 3.0 | 7.0 | 0.00 | 0.00 | 0.00 | 95 | 1013.0 |
| 20260904123016 | 60 | 44 | 3.0 | 7.0 | 0.00 | 0.00 | 0.00 | 95 | 1012.8 |
| 20260904123004 | 60 | 29 | 3.0 | 7.0 | 0.00 | 0.00 | 0.00 | 96 | 1008.9 |
| 20260904122508 | 60 | 59 | 4.0 | 7.0 | 0.00 | 0.00 | 0.00 | 95 | 1012.9 |
| 20260904122010 | 60 | 48 | 5.0 | 7.0 | 0.00 | 0.00 | 0.00 | 95 | 1012.8 |
| 20260904121523 | 60 | 37 | 3.0 | 6.0 | 0.00 | 0.00 | 0.00 | 95 | 1012.8 |
| 20260904121507 | 60 | 63 | 3.0 | 5.0 | 0.00 | 0.00 | 0.00 | 96 | 1008.8 |
| 20260904121012 | 60 | 27 | 2.0 | 10.0 | 0.00 | 0.00 | 0.00 | 95 | 1012.8 |
| 20260904120511 | 60 | 22 | 4.0 | 10.0 | 0.00 | 0.00 | 0.00 | 95 | 1012.6 |
| 20260904120027 | 60 | 20 | 6.0 | 10.0 | 0.00 | 0.00 | 0.00 | 95 | 1012.4 |
| 20260904120000 | 60 | 20 | 5.0 | 10.0 | 0.00 | 0.00 | 0.00 | 96 | 1008.4 |
| 20260904115511 | 60 | 26 | 6.0 | 10.0 | 0.00 | 0.00 | 0.00 | 95 | 1012.4 |
| 20260904115012 | 60 | 16 | 4.0 | 11.0 | 0.00 | 0.00 | 0.00 | 95 | 1012.5 |
| 20260904114606 | 60 | 338 | 5.0 | 11.0 | 0.00 | 0.00 | 0.00 | 95 | 1008.5 |
| 20260904114530 | 60 | 29 | 6.0 | 11.0 | 0.00 | 0.00 | 0.00 | 95 | 1012.5 |
| 20260904114017 | 60 | 37 | 7.0 | 11.0 | 0.00 | 0.00 | 0.00 | 95 | 1012.4 |
| 20260904113514 | 60 | 8 | 5.0 | 11.0 | 0.00 | 0.00 | 0.00 | 95 | 1012.4 |
| 20260904113057 | 60 | 316 | 6.0 | 11.0 | 0.00 | 0.00 | 0.00 | 95 | 1008.3 |
| 20260904113031 | 60 | 26 | 7.0 | 11.0 | 0.00 | 0.00 | 0.00 | 94 | 1012.3 |
| 20260904112520 | 60 | 14 | 6.0 | 11.0 | 0.00 | 0.00 | 0.00 | 94 | 1012.3 |
| 20260904112018 | 60 | 325 | 4.0 | 7.0 | 0.00 | 0.00 | 0.00 | 94 | 1012.3 |
| 20260904111555 | 60 | 8 | 3.0 | 6.0 | 0.00 | 0.00 | 0.00 | 94 | 1008.2 |
| 20260904111515 | 60 | 6 | 3.0 | 7.0 | 0.00 | 0.00 | 0.00 | 94 | 1012.3 |
| 20260904111010 | 60 | 18 | 2.0 | 9.0 | 0.00 | 0.00 | 0.00 | 94 | 1012.2 |
| 20260904110511 | 60 | 15 | 4.0 | 9.0 | 0.00 | 0.00 | 0.00 | 94 | 1012.1 |
| 20260904110051 | 60 | 20 | 2.0 | 8.0 | 0.00 | 0.00 | 0.00 | 94 | 1008.0 |
| 20260904110026 | 60 | 15 | 3.0 | 8.0 | 0.00 | 0.00 | 0.00 | 94 | 1012.0 |
| 20260904105515 | 60 | 27 | 3.0 | 9.0 | 0.00 | 0.00 | 0.00 | 94 | 1011.9 |
| 20260904105012 | 60 | 346 | 6.0 | 9.0 | 0.00 | 0.00 | 0.00 | 94 | 1011.9 |
| 20260904104554 | 60 | 6 | 4.0 | 9.0 | 0.00 | 0.00 | 0.00 | 94 | 1007.9 |
| 20260904104527 | 60 | 34 | 5.0 | 10.0 | 0.00 | 0.00 | 0.00 | 94 | 1011.9 |
| 20260904104011 | 60 | 20 | 4.0 | 10.0 | 0.00 | 0.00 | 0.00 | 94 | 1011.9 |
| 20260904103515 | 60 | 29 | 4.0 | 10.0 | 0.00 | 0.00 | 0.00 | 94 | 1011.9 |
| 20260904103054 | 60 | 27 | 4.0 | 9.0 | 0.00 | 0.00 | 0.00 | 94 | 1007.8 |
| 20260904103031 | 60 | 22 | 4.0 | 9.0 | 0.00 | 0.00 | 0.00 | 94 | 1011.8 |
| 20260904102514 | 60 | 352 | 4.0 | 7.0 | 0.00 | 0.00 | 0.00 | 94 | 1011.8 |
| 20260904102016 | 60 | 55 | 3.0 | 9.0 | 0.00 | 0.00 | 0.00 | 94 | 1011.9 |
| 20260904101551 | 60 | 55 | 4.0 | 9.0 | 0.00 | 0.00 | 0.00 | 94 | 1007.7 |
| 20260904101534 | 60 | 34 | 4.0 | 9.0 | 0.00 | 0.00 | 0.00 | 94 | 1011.8 |
| 20260904101024 | 60 | 24 | 4.0 | 9.0 | 0.00 | 0.00 | 0.00 | 94 | 1011.8 |
| 20260904100520 | 61 | 13 | 5.0 | 8.0 | 0.00 | 0.00 | 0.00 | 93 | 1011.7 |
| 20260904100047 | 61 | 32 | 3.0 | 6.0 | 0.00 | 0.00 | 0.00 | 94 | 1007.5 |
| 20260904100022 | 61 | 32 | 3.0 | 6.0 | 0.00 | 0.00 | 0.00 | 93 | 1011.8 |
| 20260904095516 | 61 | 42 | 4.0 | 6.0 | 0.00 | 0.00 | 0.00 | 93 | 1011.7 |
| 20260904095009 | 61 | 4 | 4.0 | 6.0 | 0.00 | 0.00 | 0.00 | 93 | 1011.7 |
| 20260904094558 | 61 | 1 | 3.0 | 5.0 | 0.00 | 0.00 | 0.00 | 94 | 1007.5 |
| 20260904094537 | 61 | 45 | 3.0 | 5.0 | 0.00 | 0.00 | 0.00 | 93 | 1011.7 |
| 20260904094003 | 61 | 26 | 2.0 | 4.0 | 0.00 | 0.00 | 0.00 | 93 | 1011.7 |